Flag for U.S.A. Weather past 2 weeks in Virginia Beach, Virginia, U.S.A.

Now
71 °F

Partly sunny.


Feels Like: 72 °F
Forecast: 63 / 74 °F
Wind: 6 mph from North

Location: Virginia Beach - Oceana

Current Time: Oct 2, 2014 at 9:57:28 AM

Latest Report: Oct 2, 2014 at 8:56 AM


Visibility: 10 mi

Pressure: 30.11 "Hg

Humidity: 78%

Dew point: 64 °F

Location of Virginia BeachLocation

Historic Weather in Virginia Beach — Graph

°F

Virginia Beach temperature yesterday

Maximum temperature yesterday: 77 °F (at 11:56 AM)
Minimum temperature yesterday: 63 °F (at 4:56 AM)
Average temperature yesterday: 70 °F

Past Weeks' High & Low Weather Summary

 TemperatureHumidityPressure
High81 °F (Sep 21, 4:56 PM)97% (Sep 21, 3:56 AM)30.32 "Hg (Sep 21, 3:56 AM)
Low58 °F (Sep 28, 6:44 AM)42% (Sep 22, 12:56 PM)29.72 "Hg (Sep 21, 3:56 PM)
Average70 °F74%30.07 "Hg
* Reported Sep 17 7:56 AM — Oct 2 7:56 AM, Virginia Beach, Weather by CustomWeather, © 2014

Note: Actual official high and low records may vary slightly from our data, if they occured in-between our weather recording intervals... More about our weather records

Advertising

Virginia Beach weather history for previous 24 hours

 ConditionsComfort  
Time TempWeatherWind HumidityBarometerVisibility
7:56 AM
Oct 2
67 °FPassing clouds.5 mph85%30.11 "Hg10 mi
6:56 AM62 °FPassing clouds.No wind90%30.09 "Hg10 mi
5:56 AM63 °FPassing clouds.No wind87%30.07 "Hg10 mi
4:56 AM62 °FPassing clouds.No wind96%30.06 "Hg10 mi
3:56 AM62 °FPassing clouds.No wind90%30.05 "Hg10 mi
2:56 AM62 °FPassing clouds.No wind90%30.04 "Hg10 mi
1:56 AM64 °FClear.No wind84%30.05 "Hg10 mi
12:56 AM66 °FPassing clouds.3 mph84%30.03 "Hg10 mi
11:56 PM
Oct 1
69 °FPartly cloudy.5 mph79%30.04 "Hg10 mi
10:56 PM70 °FPartly cloudy.5 mph76%30.05 "Hg10 mi
9:56 PM70 °FOvercast.6 mph79%30.04 "Hg10 mi
8:56 PM70 °FPassing clouds.5 mph76%30.03 "Hg10 mi
7:56 PM69 °FPassing clouds.5 mph76%30.02 "Hg10 mi
6:56 PM71 °FPartly sunny.7 mph73%30.00 "Hg10 mi
5:56 PM72 °FPartly sunny.8 mph71%29.99 "Hg10 mi
4:56 PM76 °FScattered clouds.10 mph62%29.98 "Hg10 mi
3:56 PM76 °FBroken clouds.5 mph64%29.98 "Hg10 mi
2:56 PM76 °FBroken clouds.8 mph67%29.98 "Hg10 mi
1:56 PM77 °FScattered clouds.9 mph60%29.98 "Hg10 mi
12:56 PM76 °FScattered clouds.9 mph60%30.00 "Hg10 mi
11:56 AM77 °FScattered clouds.7 mph62%30.00 "Hg10 mi
10:56 AM76 °FPassing clouds.12 mph60%30.00 "Hg10 mi
9:56 AM75 °FPassing clouds.10 mph64%29.98 "Hg10 mi
Weather by CustomWeather, © 2014

See weather overviewHow to use our weather pages